User: anonymous   Login
Location: Unspecified
(0.0000°N, 0.0000°E)
Time: 14:49:02
(UTC+00:00)
Language:

Kyokko - Orbit

View from above orbital plane
View from above orbital plane
View from above satellite
View from above satellite

Ground track
Ground track

The orbit data is extracted from the following two-line orbital elements,

1 10664U 78014A   17206.20806212 -.00000052 +00000-0 -19401-4 0  9992
2 10664 065.3735 206.6687 1891495 083.0756 298.0428 10.75465339533354
Epoch (UTC): 25 July 2017 04:59:36
Eccentricity: 0.1891495
inclination: 65.3735°
perigee height: 651 km
apogee height: 3931 km
right ascension of ascending node: 206.6687°
argument of perigee: 83.0756°
revolutions per day: 10.75465339
mean anomaly at epoch: 298.0428°
orbit number at epoch: 53335

The dashed part of the orbit path shows where the satellite is in the earth's shadow,  

DLR